Regional Weather Roundup
Issued by NWS

Home | Current Version | Previous Version | Text Only | Print | Product List | Glossary On
Versions: 1 2 3 4 5 6 7 8 9 10 11 12 13 14 15 16 17 18 19 20 21 22 23 24 25 26 27 28 29 30 31 32 33 34 35 36 37 38 39 40 41 42 43 44 45 46 47 48 49 50
000
ASUS44 KLIX 232313
RWRLA
LOUISIANA WEATHER ROUNDUP
NATIONAL WEATHER SERVICE NEW ORLEANS LA
500 PM CST MON JAN 23 2017

NOTE: "FAIR" INDICATES FEW OR NO CLOUDS BELOW 12,000 FEET WITH NO
      SIGNIFICANT WEATHER AND/OR OBSTRUCTIONS TO VISIBILITY.
      SKY/WX - SKY CONDITION AND SIGNIFICANT WEATHER.
      TMP - AIR TEMPERATURE.    DP   - DEWPOINT TEMPERATURE.
      RH  - RELATIVE HUMIDITY.  PRES - PRESSURE.
      HX  - HEAT INDEX.         WCI  - WIND CHILL INDEX.

*  THESE STATIONS ARE NOT NWS OR FAA STATIONS AND ARE NOT UNDER
   NWS QUALITY CONTROL.

LAZ040-048-061>063-065-066-069-240000-
SOUTHEAST LOUISIANA

CITY           SKY/WX    TMP DP  RH WIND       PRES   REMARKS
N.O. AUDUBON   NOT AVBL
N.O. INTL ARPT PTCLDY    66  46  48 NW10      29.84R
N.O. LAKEFRONT CLEAR     63  54  72 W16       29.83R
N.O. DOWNTOWN*   N/A     66  47  50 NW9       29.84R
RESERVE*       FAIR      67  43  41 NW9       29.85R
SLIDELL        CLEAR     66  48  52 VRB3      29.81R
BATON ROUGE    CLEAR     65  43  44 NW9       29.85R
BOOTHVILLE     CLEAR     64  49  57 W8        29.83R
BELLE CHASSE   PTCLDY    67  47  48 NW7       29.83R
BOGALUSA*      FAIR      67  47  48 W6        29.83R
GALLIANO*      CLEAR     67  44  43 W8        29.84R
NEW ROADS*     FAIR      63  43  49 NW6       29.87R
GONZALES*      FAIR      66  42  42 NW8       29.84R
HAMMOND*       CLEAR     64  43  45 NW7       29.83R
HOUMA*         CLEAR     66  45  45 W10       29.85R
PORT FOURCHON* CLEAR     63  52  67 W13G20    29.85R

$$

LAZ041-044-053-054-240000-
SOUTHWEST LOUISIANA

CITY           SKY/WX    TMP DP  RH WIND       PRES   REMARKS
LAKE CHARLES   CLEAR     68  37  32 NW8       29.88R
LAFAYETTE      CLEAR     67  40  37 W12       29.88R
PATTERSON      CLEAR     64  45  49 W10       29.88R
SALT POINT     NOT AVBL
NEW IBERIA     CLEAR     64  42  44 W8        29.88R
CHENAULT AIRPK CLEAR     68  34  28 NW10      29.89R

$$

LAZ027-028-240000-
CENTRAL LOUISIANA

CITY           SKY/WX    TMP DP  RH WIND       PRES   REMARKS
FORT POLK      CLEAR     64  36  35 W10       29.88R
ALEXANDRIA INT CLEAR     63  41  44 NW9       29.86R
ALEXANDRIA     CLEAR     63  39  41 VRB3      29.87R

$$

LAZ001-002-240000-
NORTHWEST LOUISIANA

CITY           SKY/WX    TMP DP  RH WIND       PRES   REMARKS
SHREVEPORT     CLEAR     64  33  31 NW6       29.87R
BARKSDALE AFB  CLEAR     63  36  36 CALM      29.87S
DTN SHREVEPORT CLEAR     62  35  36 NW5       29.87R

$$

LAZ014-016-240000-
NORTHEAST LOUISIANA

CITY           SKY/WX    TMP DP  RH WIND       PRES   REMARKS
MONROE         CLEAR     60  40  47 NW6       29.87R
TALLULAH       CLEAR     57  44  62 N7        29.86S

$$




USA.gov is the U.S. government's official web portal to all federal, state and local government web resources and services.